Welcome to the New NWS' Forecast!
Most changes are behind the scenes, but click here for differences you might notice.

Regional Weather Roundup (RWR)

Issued by National Weather Service (NWS)

                            
105 
ASUS42 KFFC 250310
RWRGA 
WEATHER ROUNDUP FOR GEORGIA
NATIONAL WEATHER SERVICE PEACHTREE CITY GA
1100 PM EDT WED MAY 24 2017

NOTE: "FAIR" INDICATES FEW OR NO CLOUDS BELOW 12,000 FEET WITH NO
SIGNIFICANT WEATHER AND/OR OBSTRUCTIONS TO VISIBILITY. 

* = USE WITH CAUTION. THE STATIONS MARKED WITH AN ASTERISK MAY NOT
REPORT WEATHER SUCH AS PRECIPITATION, FOG, OR THUNDER AND ARE NOT 
QUALITY CONTROLLED BY NWS.

THE REMARK "TC" DENOTES TEMPERATURE READING IN DEGREES CELSIUS.

GAZ001>058-250400-
NORTH GEORGIA
  
CITY           SKY/WX    TMP DP  RH WIND       PRES   REMARKS
ATLANTA        PTCLDY    62  52  69 W9        29.58R                  
ATHENS         MOCLDY    62  59  90 W5        29.55R                  
CHAMBLEE       CLEAR     62  52  69 W8        29.57R                  
PEACHTREE CITY CLEAR     63  53  70 W7        29.60R                  
ROME           CLOUDY    60  59  96 CALM      29.58R                  
WEST ATLANTA   PTCLDY    62  55  77 W6        29.58R                  
GAINESVILLE    CLEAR     61  54  77 W7        29.57R                  
CARTERSVILLE   CLEAR     60  57  89 CALM      29.59R                  

  
CITY           SKY/WX    TMP DP  RH WIND       PRES   REMARKS
DALTON*        PTCLDY    55  55 100 CALM      29.60R                  
MARIETTA       PTCLDY    60  54  78 W8        29.58R                  
KENNESAW*      CLOUDY    61  54  77 W6        29.59R                  
CANTON*        CLEAR     59  50  72 W6        29.59R                  
$$

GAZ059>098-102>109-250400-
CENTRAL GEORGIA
  
CITY           SKY/WX    TMP DP  RH WIND       PRES   REMARKS
AUGUSTA-BUSH   HVY RAIN  65  61  87 SW18G40   29.56R VSB 3/4          
AUGUSTA-DANIEL TSTM      66  62  87 W9        29.56R VSB 3/4          
COLUMBUS       CLEAR     67  53  61 NW8       29.61R                  
MACON          CLEAR     64  58  80 W9        29.57R                  
ROBINS AFB     CLEAR     67  59  75 W9        29.56R                  

  
CITY           SKY/WX    TMP DP  RH WIND       PRES   REMARKS
LAGRANGE*      CLEAR     64  57  80 NW9       29.62R                  
SYLVANIA*      CLOUDY    68  68 100 SW7       29.55S                  
MILLEDGEVILLE* CLEAR     64  64 100 W3        29.55R FOG              
$$

GAZ099>101-110>166-250400-
SOUTH GEORGIA
  
CITY           SKY/WX    TMP DP  RH WIND       PRES   REMARKS
SAVANNAH       CLOUDY    70  64  81 S9        29.58R                  
VALDOSTA       CLEAR     69  67  93 SW8       29.63R                  
ALMA           MOCLDY    70  67  90 SW13      29.58S                  
ST SIMONS      CLOUDY    73  69  87 SW16G28   29.61R                  
FT STEWART     MOCLDY    68  65  90 SW7       29.57R                  
ALBANY         CLOUDY    70  56  61 W8        29.63R                  
HUNTER AFB     MOCLDY    68  68 100 SW3       29.56R                  
MOODY AFB      CLEAR     71  66  84 SW16G25   29.61R                  

  
CITY           SKY/WX    TMP DP  RH WIND       PRES   REMARKS
BAINBRIDGE*    CLEAR     70  55  60 W8        29.65R                  
MOULTRIE*      MOCLDY    70  63  78 W8        29.64R                  
VIDALIA*       CLOUDY    68  68 100 S8        29.55S                  
WAYCROSS*      MOCLDY    73  73 100 SW10G16   29.60R                  
DOUGLAS*       CLOUDY    70  68  94 SW9       29.61R                  
$$